Miscellaneous Local Product
Issued by NWS Hastings, NE

Home | Current Version | Previous Version | Graphics & Text | Print | Product List | Glossary On
Versions: 1 2 3 4 5 6 7 8 9 10 11 12 13 14 15 16 17 18 19 20 21 22 23 24 25 26 27 28 29 30 31 32 33 34 35 36 37 38 39 40 41 42 43 44 45 46 47 48 49 50
814
AXUS43 KGID 190402
MISGRI

GID CWA HOURLY WEATHER ROUNDUP
NATIONAL WEATHER SERVICE HASTINGS NE
1000 PM CST THU JAN 18 2018

NOTE: "FAIR" INDICATES FEW OR NO CLOUDS BELOW 12,000 FEET WITH NO
SIGNIFICANT WEATHER AND/OR OBSTRUCTIONS TO VISIBILITY.

...SOUTH CENTRAL NEBRASKA...

CITY           SKY/WX    TMP DP  RH WIND       PRES   REMARKS
GRAND ISLAND   CLOUDY    34  28  79 SW7       29.88S WCI  28
KEARNEY        CLOUDY    37  26  64 SW8       29.88F WCI  31
HASTINGS       CLOUDY    37  25  61 SW5       29.89R WCI  33
ORD            CLOUDY    28  27  96 CALM      29.83F
YORK           CLOUDY    32  28  86 SW9       29.88S WCI  24
AURORA         CLOUDY    30  26  83 W8        29.89R WCI  23
LEXINGTON      MOCLDY    34  28  77 CALM      29.87F
HOLDREGE       CLOUDY    40  27  61 SW5       29.89S
HEBRON         PTCLDY    36  26  66 SW5       29.92S WCI  32

...NEBRASKA PANHANDLE...

CITY           SKY/WX    TMP DP  RH WIND       PRES   REMARKS
CHADRON        CLOUDY    32  28  85 SW5       29.80F WCI  27
ALLIANCE       CLOUDY    36  30  79 SW8       29.83F WCI  30
SCOTTSBLUFF    CLOUDY    41  30  65 NW3       29.86F
SIDNEY         CLOUDY    34  21  59 W12       29.90F WCI  25

...WESTERN AND NORTH CENTRAL NEBRASKA...

CITY           SKY/WX    TMP DP  RH WIND       PRES   REMARKS
VALENTINE      CLOUDY    37  29  72 W7        29.77F WCI  32
AINSWORTH      CLOUDY    39  32  75 SW9       29.78F WCI  33
ONEILL         CLOUDY    36  32  87 SW6       29.80S WCI  31
BROKEN BOW     PTCLDY    31  26  82 CALM      29.84F
IMPERIAL       MOCLDY    38  24  57 W7        29.88F WCI  33
NORTH PLATTE   MOCLDY    27  23  85 CALM      29.87F
MCCOOK         PTCLDY    36  25  64 CALM      29.89S

...EASTERN NEBRASKA...

CITY           SKY/WX    TMP DP  RH WIND       PRES   REMARKS
NORFOLK        CLOUDY    31  28  89 W5        29.83R WCI  26
SO SIOUX CITY  CLOUDY    25  23  92 SE9       29.84F WCI  15
TEKAMAH        CLOUDY    28  23  81 S12       29.87F WCI  18
COLUMBUS       CLOUDY    26  24  92 SW3       29.87S
ALBION         CLOUDY    36  29  75 W3        29.84F
OMAHA EPPLEY   CLOUDY    27  21  78 SE12      29.90F WCI  17
OFFUTT AFB     CLOUDY    22  18  85 E6        29.90F WCI  14
MILLARD        CLOUDY    28  22  78 SE5       29.90F WCI  23
LINCOLN        CLOUDY    31  23  72 S3        29.91F
NEBRASKA CITY  CLOUDY    30  24  79 S10       29.93F WCI  21
BEATRICE       CLOUDY    35  24  64 S8        29.92F WCI  29
FALLS CITY     CLOUDY    35  23  61 S6        29.97R WCI  30

...NORTHERN KANSAS...

CITY           SKY/WX    TMP DP  RH WIND       PRES   REMARKS
GOODLAND       PTCLDY    42  13  30 SW10      29.91F
HILL CITY      CLOUDY    47  15  27 SW9       29.92S
NORTON         CLEAR     34  19  55 SW7       29.90  WCI  28
PHILLIPSBURG   CLEAR     41  16  36 CALM      29.91S
SMITH CENTER     N/A     37  18  44 SW6       29.92S WCI  33
BELOIT         CLEAR     37  19  48 CALM      29.93S
HAYS           CLOUDY    36  17  46 SW12      29.94F WCI  28
RUSSELL        CLOUDY    41  21  44 S14       29.93F
CONCORDIA      CLOUDY    39  23  52 S18       29.92F WCI  30
SALINA         CLOUDY    40  26  57 S21       29.98F WCI  30
TOPEKA         CLOUDY    40  24  53 S10       30.02F WCI  33



USA.gov is the U.S. government's official web portal to all federal, state and local government web resources and services.